FW1241 Weather Reports


time (UTC)temp
C
wind
direction
speed
KPH
gust
KPH
rain 1hr
cm
rain 24hr
cm
rain mn
cm
humidity
%
barometer
mb
20260509221104 31 309 3.2 4.8 0.00 0.00 0.00 30 1010.1
20260509215604 31 131 3.2 8.0 0.00 0.00 0.00 34 1010.3
20260509215104 31 318 1.6 8.0 0.00 0.00 0.00 36 1010.4
20260509214603 31 302 0.0 9.7 0.00 0.00 0.00 38 1010.5
20260509214104 31 285 1.6 4.8 0.00 0.00 0.00 38 1010.5
20260509212603 31 291 1.6 4.8 0.00 0.00 0.00 38 1010.8
20260509212103 31 304 0.0 3.2 0.00 0.00 0.00 39 1010.8
20260509210604 30 293 1.6 8.0 0.00 0.00 0.00 39 1011.1
20260509203104 29 297 0.0 4.8 0.00 0.00 0.00 45 1011.5
20260509202604 30 301 3.2 8.0 0.00 0.00 0.00 42 1011.6
20260509200604 28 187 0.0 4.8 0.00 0.00 0.00 46 1011.8
20260509200103 28 357 0.0 3.2 0.00 0.00 0.00 44 1011.9
20260509194104 27 301 1.6 4.8 0.00 0.00 0.00 49 1012.1
20260509193604 27 300 0.0 4.8 0.00 0.00 0.00 47 1012.2
20260509192104 27 257 0.0 4.8 0.00 0.00 0.00 52 1012.5
20260509190604 27 235 0.0 3.2 0.00 0.00 0.00 51 1012.7
20260509185104 26 177 0.0 3.2 0.00 0.00 0.00 51 1012.9
20260509183104 26 171 1.6 4.8 0.00 0.00 0.00 52 1013.0
20260509182604 26 202 1.6 3.2 0.00 0.00 0.00 52 1013.0
20260509181104 25 301 0.0 3.2 0.00 0.00 0.00 54 1013.3
20260509180604 25 171 0.0 3.2 0.00 0.00 0.00 54 1013.3
20260509180103 25 193 0.0 3.2 0.00 0.00 0.00 56 1013.4
20260509175104 25 164 1.6 4.8 0.00 0.00 0.00 56 1013.4
20260509174605 25 146 0.0 3.2 0.00 0.00 0.00 56 1013.4
20260509174104 25 192 1.6 8.0 0.00 0.00 0.00 57 1013.4
20260509173104 24 166 3.2 8.0 0.00 0.00 0.00 57 1013.5
20260509172604 24 170 1.6 8.0 0.00 0.00 0.00 58 1013.5
20260509171603 24 184 1.6 4.8 0.00 0.00 0.00 58 1013.5
20260509171103 24 345 1.6 4.8 0.00 0.00 0.00 60 1013.5
20260509165604 23 356 0.0 8.0 0.00 0.00 0.00 61 1013.5
20260509164604 23 200 3.2 11.3 0.00 0.00 0.00 61 1013.5
20260509164104 23 176 1.6 8.0 0.00 0.00 0.00 60 1013.4
20260509163104 22 147 1.6 4.8 0.00 0.00 0.00 63 1013.4
20260509162103 22 176 3.2 9.7 0.00 0.00 0.00 62 1013.5
20260509161103 22 194 0.0 8.0 0.00 0.00 0.00 64 1013.6
20260509160604 22 215 3.2 9.7 0.00 0.00 0.00 63 1013.7
20260509160103 21 199 1.6 8.0 0.00 0.00 0.00 64 1013.7
20260509155104 21 199 0.0 4.8 0.00 0.00 0.00 66 1013.8
20260509154103 21 183 1.6 9.7 0.00 0.00 0.00 66 1013.8
20260509152604 20 191 3.2 8.0 0.00 0.00 0.00 68 1014.0
20260509152103 20 164 0.0 4.8 0.00 0.00 0.00 70 1014.1
20260509151604 19 188 0.0 4.8 0.00 0.00 0.00 70 1014.2
20260509151103 19 184 1.6 4.8 0.00 0.00 0.00 70 1014.2
20260509150603 18 175 1.6 4.8 0.00 0.00 0.00 72 1014.2
20260509150104 18 130 0.0 1.6 0.00 0.00 0.00 72 1014.1
20260509145604 18 188 0.0 4.8 0.00 0.00 0.00 73 1014.1
20260509144603 17 176 1.6 4.8 0.00 0.00 0.00 75 1014.1
20260509144103 17 168 0.0 3.2 0.00 0.00 0.00 77 1014.2
20260509143604 17 176 0.0 3.2 0.00 0.00 0.00 78 1014.2
20260509142604 16 181 1.6 4.8 0.00 0.00 0.00 80 1014.1
20260509142103 16 183 0.0 1.6 0.00 0.00 0.00 82 1014.1
20260509141104 15 108 0.0 1.6 0.00 0.00 0.00 88 1013.9
20260509140103 13 176 0.0 0.0 0.00 0.00 0.00 89 1013.7
20260509134604 13 117 0.0 0.0 0.00 0.00 0.00 89 1013.6
20260509134103 13 117 0.0 0.0 0.00 0.00 0.00 89 1013.6
20260509133604 13 114 0.0 0.0 0.00 0.00 0.00 89 1013.5
20260509132604 13 114 0.0 1.6 0.00 0.00 0.00 89 1013.4
20260509132103 12 148 0.0 0.0 0.00 0.00 0.00 89 1013.4
20260509131605 13 150 0.0 0.0 0.00 0.00 0.00 90 1013.4
20260509131103 13 163 0.0 0.0 0.00 0.00 0.00 90 1013.4
20260509130104 12 163 0.0 0.0 0.00 0.00 0.00 89 1013.3
20260509125103 13 163 0.0 0.0 0.00 0.00 0.00 89 1013.2
20260509124604 13 162 0.0 0.0 0.00 0.00 0.00 89 1013.2
20260509123103 13 98 0.0 0.0 0.00 0.00 0.00 89 1013.0
20260509122604 13 98 0.0 0.0 0.00 0.00 0.00 89 1013.0
20260509122104 13 98 0.0 0.0 0.00 0.00 0.00 89 1012.9
20260509120104 13 98 0.0 0.0 0.00 0.00 0.00 88 1012.9
20260509115104 13 136 0.0 1.6 0.00 0.00 0.00 88 1012.9
20260509114604 13 115 0.0 1.6 0.00 0.00 0.00 87 1012.8
20260509114104 13 124 0.0 1.6 0.00 0.00 0.00 87 1012.8
20260509112103 13 117 0.0 1.6 0.00 0.00 0.00 86 1012.8
20260509111603 14 136 0.0 0.0 0.00 0.00 0.00 86 1012.8
20260509111103 14 136 0.0 0.0 0.00 0.00 0.00 86 1012.8
20260509110603 14 136 0.0 1.6 0.00 0.00 0.00 86 1012.8
20260509104603 15 120 0.0 0.0 0.00 0.00 0.00 84 1012.7
20260509104108 15 129 0.0 1.6 0.00 0.00 0.00 84 1012.7
20260509103604 15 275 0.0 0.0 0.00 0.00 0.00 84 1012.6
20260509103104 15 275 0.0 0.0 0.00 0.00 0.00 84 1012.7
20260509102104 16 275 0.0 0.0 0.00 0.00 0.00 84 1012.6
20260509100604 16 275 0.0 0.0 0.00 0.00 0.00 84 1012.6
20260509095603 16 275 0.0 0.0 0.00 0.00 0.00 83 1012.6
20260509095104 16 276 0.0 0.0 0.00 0.00 0.00 82 1012.5
20260509094604 16 276 0.0 0.0 0.00 0.00 0.00 81 1012.5
20260509094104 16 275 0.0 0.0 0.00 0.00 0.00 81 1012.5
20260509093604 16 276 0.0 0.0 0.00 0.00 0.00 81 1012.5
20260509093104 16 275 0.0 0.0 0.00 0.00 0.00 81 1012.4
20260509092603 16 275 0.0 0.0 0.00 0.00 0.00 81 1012.4
20260509092104 16 275 0.0 0.0 0.00 0.00 0.00 80 1012.4
20260509091104 16 276 0.0 0.0 0.00 0.00 0.00 79 1012.3
20260509084604 16 275 0.0 0.0 0.00 0.00 0.00 76 1012.3
20260509084104 16 275 0.0 0.0 0.00 0.00 0.00 76 1012.3
20260509083604 17 275 0.0 0.0 0.00 0.00 0.00 75 1012.2
20260509083103 17 275 0.0 0.0 0.00 0.00 0.00 74 1012.2
20260509082104 17 276 0.0 0.0 0.00 0.00 0.00 75 1012.2
20260509081103 17 276 0.0 0.0 0.00 0.00 0.00 73 1012.1
20260509080104 17 276 0.0 0.0 0.00 0.00 0.00 71 1012.3
20260509075604 17 275 0.0 0.0 0.00 0.00 0.00 69 1012.3
20260509075104 17 275 0.0 0.0 0.00 0.00 0.00 68 1012.4
20260509074604 17 275 0.0 0.0 0.00 0.00 0.00 68 1012.3
20260509074103 18 275 0.0 0.0 0.00 0.00 0.00 68 1012.3
20260509073103 18 275 0.0 0.0 0.00 0.00 0.00 67 1012.3
20260509072104 18 275 0.0 0.0 0.00 0.00 0.00 66 1012.3
20260509071105 18 275 0.0 0.0 0.00 0.00 0.00 65 1012.2
20260509065604 19 276 0.0 0.0 0.00 0.00 0.00 63 1012.2
20260509065104 20 275 0.0 0.0 0.00 0.00 0.00 60 1012.2
20260509062104 21 276 0.0 0.0 0.00 0.00 0.00 55 1012.1
20260509061103 21 275 0.0 0.0 0.00 0.00 0.00 53 1012.0
20260509060104 21 276 0.0 0.0 0.00 0.00 0.00 53 1012.0
20260509054604 22 316 0.0 0.0 0.00 0.00 0.00 51 1011.9
20260509054103 22 322 0.0 0.0 0.00 0.00 0.00 51 1011.8
20260509053604 22 322 0.0 0.0 0.00 0.00 0.00 50 1011.9
20260509052603 22 338 0.0 1.6 0.00 0.00 0.00 50 1011.9
20260509045104 23 315 0.0 0.0 0.00 0.00 0.00 53 1011.7
20260509044604 23 315 0.0 0.0 0.00 0.00 0.00 52 1011.7
20260509044104 23 315 0.0 0.0 0.00 0.00 0.00 51 1011.7
20260509043603 23 315 0.0 0.0 0.00 0.00 0.00 51 1011.6
20260509042604 24 315 0.0 0.0 0.00 0.00 0.00 49 1011.5
20260509042104 24 315 0.0 0.0 0.00 0.00 0.00 48 1011.4
20260509041104 24 314 0.0 0.0 0.00 0.00 0.00 48 1011.3
20260509040604 24 315 0.0 0.0 0.00 0.00 0.00 49 1011.3
20260509040104 24 315 0.0 0.0 0.00 0.00 0.00 48 1011.2
20260509035104 25 315 0.0 0.0 0.00 0.00 0.00 46 1011.2
20260509033604 25 315 0.0 0.0 0.00 0.00 0.00 43 1011.1
20260509031604 26 304 0.0 1.6 0.00 0.00 0.00 41 1010.9
20260509031104 26 305 0.0 0.0 0.00 0.00 0.00 40 1010.8
20260509025104 27 312 0.0 0.0 0.00 0.00 0.00 36 1010.7
20260509024603 27 304 0.0 0.0 0.00 0.00 0.00 35 1010.6
20260509023103 28 312 0.0 1.6 0.00 0.00 0.00 33 1010.5
20260509022604 28 311 0.0 1.6 0.00 0.00 0.00 32 1010.5
20260509021603 29 306 0.0 4.8 0.00 0.00 0.00 30 1010.4
20260509014604 31 301 1.6 8.0 0.00 0.00 0.00 26 1010.3
20260509014104 31 320 0.0 3.2 0.00 0.00 0.00 26 1010.3
20260509013604 31 300 3.2 8.0 0.00 0.00 0.00 25 1010.2
20260509013103 31 269 1.6 4.8 0.00 0.00 0.00 27 1010.3
20260509010604 31 300 1.6 8.0 0.00 0.00 0.00 29 1010.3
20260509005103 31 296 1.6 11.3 0.00 0.00 0.00 29 1010.4
20260509004604 32 291 1.6 4.8 0.00 0.00 0.00 28 1010.5
20260509003604 32 267 3.2 8.0 0.00 0.00 0.00 29 1010.6
20260509003104 32 303 1.6 8.0 0.00 0.00 0.00 29 1010.7
20260509002603 32 306 0.0 4.8 0.00 0.00 0.00 30 1010.7
20260509001603 31 312 4.8 11.3 0.00 0.00 0.00 30 1010.8
20260509001104 32 298 3.2 8.0 0.00 0.00 0.00 30 1010.8
20260508234603 32 305 3.2 11.3 0.00 0.00 0.00 31 1011.0
20260508234104 32 298 1.6 8.0 0.00 0.00 0.00 31 1011.0
20260508233103 32 309 3.2 8.0 0.00 0.00 0.00 33 1011.1
20260508231605 32 307 4.8 11.3 0.00 0.00 0.00 33 1011.3
20260508230604 32 307 3.2 8.0 0.00 0.00 0.00 34 1011.5
20260508223104 31 319 3.2 9.7 0.00 0.00 0.00 40 1011.9